,,Stat5,,Stat1,,Stat2,,Stat3,,Stat4,,Wind1,,Wind1,
time,status,PA1M_AVG,status,PR1M_SUM,status,RH1M_AVG,status,SR1M_AVG,status,TA1M_AVG,status,W1dAve1m,status,W1sAve1m,
2001-04-17, 00:00:00,VALID,918.361,VALID,0,VALID,96.1969,VALID,0,VALID,21.2517,VALID,93,VALID,0.294271,
2001-04-17, 00:01:00,VALID,918.346,VALID,0,VALID,96.1282,VALID,0.0169808,VALID,21.2391,VALID,85,VALID,0.159237,
2001-04-17, 00:02:00,VALID,918.347,VALID,0,VALID,96.0901,VALID,0,VALID,21.2162,VALID,116,VALID,0.00308388,
2001-04-17, 00:03:00,VALID,918.341,VALID,0,VALID,96.1269,VALID,0.0339617,VALID,21.206,VALID,117,VALID,0,
2001-04-17, 00:04:00,VALID,918.348,VALID,0,VALID,96.0875,VALID,0,VALID,21.1998,VALID,117,VALID,0.0242599,
2001-04-17, 00:05:00,VALID,918.328,VALID,0,VALID,96.1142,VALID,0,VALID,21.1798,VALID,117,VALID,0,
2001-04-17, 00:06:00,VALID,918.306,VALID,0,VALID,96.1753,VALID,0.0169808,VALID,21.1871,VALID,114,VALID,0.224609,
2001-04-17, 00:07:00,VALID,918.272,VALID,0,VALID,96.3113,VALID,0,VALID,21.1901,VALID,114,VALID,0.246711,
2001-04-17, 00:08:00,VALID,918.25,VALID,0,VALID,96.3355,VALID,0,VALID,21.2197,VALID,115,VALID,0,
2001-04-17, 00:09:00,VALID,918.24,VALID,0,VALID,96.1206,VALID,0,VALID,21.2127,VALID,116,VALID,0,
2001-04-17, 00:10:00,VALID,918.24,VALID,0,VALID,96.1435,VALID,0,VALID,21.2097,VALID,116,VALID,0.179688,
2001-04-17, 00:11:00,VALID,918.238,VALID,0,VALID,96.2681,VALID,-0.0169808,VALID,21.1963,VALID,112,VALID,0.320518,
2001-04-17, 00:12:00,VALID,918.22,VALID,0,VALID,96.249,VALID,0,VALID,21.1998,VALID,104,VALID,0.164063,
2001-04-17, 00:13:00,VALID,918.226,VALID,0,VALID,96.1791,VALID,0,VALID,21.1971,VALID,105,VALID,0.00683594,
2001-04-17, 00:14:00,VALID,918.218,VALID,0,VALID,95.996,VALID,0,VALID,21.1804,VALID,105,VALID,0,
2001-04-17, 00:15:00,VALID,918.193,VALID,0,VALID,95.8714,VALID,0,VALID,21.1578,VALID,105,VALID,0,
2001-04-17, 00:16:00,VALID,918.183,VALID,0,VALID,95.7289,VALID,0,VALID,21.1222,VALID,105,VALID,0,
2001-04-17, 00:17:00,VALID,918.153,VALID,0,VALID,95.8065,VALID,0,VALID,21.109,VALID,105,VALID,0,
2001-04-17, 00:18:00,VALID,918.136,VALID,0,VALID,95.8624,VALID,0.0169808,VALID,21.1128,VALID,105,VALID,0,
2001-04-17, 00:19:00,VALID,918.124,VALID,0,VALID,95.8103,VALID,0,VALID,21.1095,VALID,105,VALID,0,
2001-04-17, 00:20:00,VALID,918.121,VALID,0,VALID,95.8383,VALID,0.0169808,VALID,21.0934,VALID,105,VALID,0.273633,
2001-04-17, 00:21:00,VALID,918.106,VALID,0,VALID,96.0303,VALID,0.0169808,VALID,21.0931,VALID,104,VALID,0.188086,
2001-04-17, 00:22:00,VALID,918.099,VALID,0,VALID,96.1282,VALID,0,VALID,21.0969,VALID,104,VALID,0,
2001-04-17, 00:23:00,VALID,918.094,VALID,0,VALID,95.9731,VALID,0,VALID,21.0966,VALID,103,VALID,0.00123355,
2001-04-17, 00:24:00,VALID,918.081,VALID,0,VALID,95.8574,VALID,0.0169808,VALID,21.0449,VALID,101,VALID,0.03125,
2001-04-17, 00:25:00,VALID,918.072,VALID,0,VALID,95.9693,VALID,0.0169808,VALID,21.0312,VALID,101,VALID,0.03125,
2001-04-17, 00:26:00,VALID,918.057,VALID,0,VALID,96.1028,VALID,0,VALID,21.0417,VALID,101,VALID,0.0170272,
2001-04-17, 00:27:00,VALID,918.034,VALID,0,VALID,96.1422,VALID,-0.0169808,VALID,21.0253,VALID,93,VALID,0,
2001-04-17, 00:28:00,VALID,918.031,VALID,0,VALID,96.1867,VALID,0,VALID,21.0126,VALID,84,VALID,0,
2001-04-17, 00:29:00,VALID,918.02,VALID,0,VALID,96.2134,VALID,0,VALID,21.0123,VALID,84,VALID,0,
2001-04-17, 00:30:00,VALID,918.03,VALID,0,VALID,96.085,VALID,0,VALID,20.9703,VALID,75,VALID,0,
2001-04-17, 00:31:00,VALID,918.023,VALID,0,VALID,96.0163,VALID,0,VALID,20.9507,VALID,79,VALID,0.210938,
2001-04-17, 00:32:00,VALID,918.009,VALID,0,VALID,96.0341,VALID,0,VALID,20.9283,VALID,49,VALID,0.498242,
2001-04-17, 00:33:00,VALID,917.99,VALID,0,VALID,96.2032,VALID,0,VALID,20.9159,VALID,87,VALID,0.632031,
2001-04-17, 00:34:00,VALID,917.973,VALID,0,VALID,96.4232,VALID,-0.0169808,VALID,20.9194,VALID,99,VALID,0.333934,
2001-04-17, 00:35:00,VALID,917.956,VALID,0,VALID,96.5161,VALID,0,VALID,20.9154,VALID,108,VALID,0.240748,
2001-04-17, 00:36:00,VALID,917.935,VALID,0,VALID,96.6534,VALID,0,VALID,20.9248,VALID,121,VALID,0.0925781,
2001-04-17, 00:37:00,VALID,917.916,VALID,0,VALID,96.661,VALID,0,VALID,20.938,VALID,116,VALID,0.11543,
2001-04-17, 00:38:00,VALID,917.897,VALID,0,VALID,96.5809,VALID,-0.0339617,VALID,20.9558,VALID,116,VALID,0.190104,
2001-04-17, 00:39:00,VALID,917.884,VALID,0,VALID,96.4283,VALID,-0.0509425,VALID,20.9361,VALID,116,VALID,0.00246711,
2001-04-17, 00:40:00,VALID,917.866,VALID,0,VALID,96.4143,VALID,-0.0339617,VALID,20.9103,VALID,114,VALID,0.258984,
2001-04-17, 00:41:00,VALID,917.857,VALID,0,VALID,96.4652,VALID,-0.0509425,VALID,20.9232,VALID,113,VALID,0,
2001-04-17, 00:42:00,VALID,917.833,VALID,0,VALID,96.4665,VALID,0,VALID,20.9267,VALID,118,VALID,0,
2001-04-17, 00:43:00,VALID,917.794,VALID,0,VALID,96.4181,VALID,-0.0509425,VALID,20.9264,VALID,98,VALID,0.298314,
2001-04-17, 00:44:00,VALID,917.747,VALID,0,VALID,96.3927,VALID,0,VALID,20.9267,VALID,90,VALID,0.490039,
2001-04-17, 00:45:00,VALID,917.707,VALID,0,VALID,96.352,VALID,0,VALID,20.92,VALID,100,VALID,0.77168,
2001-04-17, 00:46:00,VALID,917.664,VALID,0,VALID,96.1867,VALID,-0.0509425,VALID,20.8973,VALID,79,VALID,0.658454,
2001-04-17, 00:47:00,VALID,917.63,VALID,0,VALID,96.132,VALID,-0.0169808,VALID,20.8747,VALID,80,VALID,0.386308,
2001-04-17, 00:48:00,VALID,917.62,VALID,0,VALID,96.2299,VALID,-0.0169808,VALID,20.8586,VALID,83,VALID,0.301758,
2001-04-17, 00:49:00,VALID,917.6,VALID,0,VALID,96.3469,VALID,-0.0339617,VALID,20.8529,VALID,86,VALID,0.146875,
2001-04-17, 00:50:00,VALID,917.585,VALID,0,VALID,96.1282,VALID,-0.0339617,VALID,20.7937,VALID,85,VALID,0.514423,
2001-04-17, 00:51:00,VALID,917.564,VALID,0,VALID,96.2096,VALID,-0.0849042,VALID,20.7813,VALID,86,VALID,0.0721628,
2001-04-17, 00:52:00,VALID,917.532,VALID,0,VALID,96.2999,VALID,0,VALID,20.7783,VALID,86,VALID,0.128906,
2001-04-17, 00:53:00,VALID,917.496,VALID,0,VALID,96.2961,VALID,-0.0509425,VALID,20.7587,VALID,88,VALID,0.20625,
2001-04-17, 00:54:00,VALID,917.482,VALID,0,VALID,96.263,VALID,-0.0169808,VALID,20.7455,VALID,89,VALID,0.409455,
2001-04-17, 00:55:00,VALID,917.461,VALID,0,VALID,96.2058,VALID,-0.0509425,VALID,20.7166,VALID,89,VALID,0.219572,
2001-04-17, 00:56:00,VALID,917.45,VALID,0,VALID,96.2516,VALID,-0.0339617,VALID,20.7067,VALID,89,VALID,0,
2001-04-17, 00:57:00,VALID,917.435,VALID,0,VALID,96.3482,VALID,-0.0339617,VALID,20.6876,VALID,89,VALID,0,
2001-04-17, 00:58:00,VALID,917.411,VALID,0,VALID,96.4855,VALID,0,VALID,20.6647,VALID,89,VALID,0,
2001-04-17, 00:59:00,VALID,917.386,VALID,0,VALID,96.6,VALID,-0.0509425,VALID,20.669,VALID,89,VALID,0,
2001-04-17, 01:00:00,VALID,917.369,VALID,0,VALID,96.7081,VALID,-0.0339617,VALID,20.6655,VALID,89,VALID,0,
2001-04-17, 01:01:00,VALID,917.337,VALID,0,VALID,96.7348,VALID,-0.0509425,VALID,20.6458,VALID,89,VALID,0,
2001-04-17, 01:02:00,VALID,917.313,VALID,0,VALID,96.7895,VALID,-0.0339617,VALID,20.6456,VALID,89,VALID,0,
2001-04-17, 01:03:00,VALID,917.316,VALID,0,VALID,96.8429,VALID,-0.0339617,VALID,20.6388,VALID,69,VALID,0.0608553,
2001-04-17, 01:04:00,VALID,917.31,VALID,0,VALID,96.8759,VALID,0,VALID,20.6267,VALID,332,VALID,0.355273,
2001-04-17, 01:05:00,VALID,917.303,VALID,0,VALID,96.9281,VALID,-0.0339617,VALID,20.575,VALID,327,VALID,0.262305,
2001-04-17, 01:06:00,VALID,917.316,VALID,0,VALID,97.0807,VALID,-0.0339617,VALID,20.5424,VALID,315,VALID,0.121394,
2001-04-17, 01:07:00,VALID,917.317,VALID,0,VALID,97.2536,VALID,-0.0339617,VALID,20.5292,VALID,313,VALID,0.00555099,
2001-04-17, 01:08:00,VALID,917.32,VALID,0,VALID,97.3808,VALID,-0.0509425,VALID,20.5427,VALID,313,VALID,0,
2001-04-17, 01:09:00,VALID,917.326,VALID,0,VALID,97.4265,VALID,-0.0339617,VALID,20.54,VALID,313,VALID,0.00117188,
2001-04-17, 01:10:00,VALID,917.321,VALID,0,VALID,97.4774,VALID,-0.0339617,VALID,20.526,VALID,313,VALID,0.0823317,
2001-04-17, 01:11:00,VALID,917.324,VALID,0,VALID,97.4876,VALID,-0.0509425,VALID,20.5168,VALID,313,VALID,0.114926,
2001-04-17, 01:12:00,VALID,917.334,VALID,0,VALID,97.499,VALID,-0.0169808,VALID,20.5007,VALID,278,VALID,0.0943359,
2001-04-17, 01:13:00,VALID,917.326,VALID,0,VALID,97.4876,VALID,-0.0169808,VALID,20.4872,VALID,262,VALID,0.333008,
2001-04-17, 01:14:00,VALID,917.329,VALID,0,VALID,97.5105,VALID,-0.0169808,VALID,20.4942,VALID,284,VALID,0.160056,
2001-04-17, 01:15:00,VALID,917.307,VALID,0,VALID,97.5384,VALID,-0.0169808,VALID,20.481,VALID,306,VALID,0.39227,
2001-04-17, 01:16:00,VALID,917.29,VALID,0,VALID,97.5397,VALID,0,VALID,20.4751,VALID,310,VALID,0.294141,
2001-04-17, 01:17:00,VALID,917.276,VALID,0,VALID,97.5918,VALID,-0.0169808,VALID,20.4679,VALID,287,VALID,0.25332,
2001-04-17, 01:18:00,VALID,917.256,VALID,0,VALID,97.6109,VALID,-0.0339617,VALID,20.4778,VALID,290,VALID,0.11238,
2001-04-17, 01:19:00,VALID,917.238,VALID,0,VALID,97.6503,VALID,-0.0169808,VALID,20.4808,VALID,291,VALID,0.179482,
2001-04-17, 01:20:00,VALID,917.216,VALID,0,VALID,97.658,VALID,-0.0169808,VALID,20.4974,VALID,294,VALID,0.322852,
2001-04-17, 01:21:00,VALID,917.192,VALID,0,VALID,97.6338,VALID,0,VALID,20.4872,VALID,290,VALID,0.345313,
2001-04-17, 01:22:00,VALID,917.176,VALID,0,VALID,97.6414,VALID,-0.0169808,VALID,20.4915,VALID,301,VALID,0.392228,
2001-04-17, 01:23:00,VALID,917.16,VALID,0,VALID,97.6847,VALID,-0.0169808,VALID,20.4711,VALID,343,VALID,0.168174,
2001-04-17, 01:24:00,VALID,917.141,VALID,0,VALID,97.7584,VALID,-0.0169808,VALID,20.491,VALID,335,VALID,0.0101562,
2001-04-17, 01:25:00,VALID,917.124,VALID,0,VALID,97.8245,VALID,-0.0509425,VALID,20.5106,VALID,335,VALID,0,
2001-04-17, 01:26:00,VALID,917.116,VALID,0,VALID,97.869,VALID,-0.0169808,VALID,20.5104,VALID,335,VALID,0,
2001-04-17, 01:27:00,VALID,917.103,VALID,0,VALID,97.8576,VALID,-0.0509425,VALID,20.5268,VALID,335,VALID,0.000822368,
2001-04-17, 01:28:00,VALID,917.081,VALID,0,VALID,97.7902,VALID,0,VALID,20.5201,VALID,335,VALID,0.00117188,
2001-04-17, 01:29:00,VALID,917.083,VALID,0,VALID,97.7686,VALID,-0.0169808,VALID,20.5298,VALID,335,VALID,0,
2001-04-17, 01:30:00,VALID,917.066,VALID,0,VALID,97.7126,VALID,0,VALID,20.533,VALID,335,VALID,0.0152244,
2001-04-17, 01:31:00,VALID,917.068,VALID,0,VALID,97.5855,VALID,-0.0339617,VALID,20.5136,VALID,342,VALID,0.176192,
2001-04-17, 01:32:00,VALID,917.057,VALID,0,VALID,97.4685,VALID,-0.0679233,VALID,20.4813,VALID,343,VALID,0.119922,
2001-04-17, 01:33:00,VALID,917.051,VALID,0,VALID,97.4456,VALID,-0.0169808,VALID,20.4654,VALID,319,VALID,0,
2001-04-17, 01:34:00,VALID,917.036,VALID,0,VALID,97.4532,VALID,-0.0339617,VALID,20.4487,VALID,311,VALID,0,
2001-04-17, 01:35:00,VALID,917.033,VALID,0,VALID,97.4761,VALID,0,VALID,20.4587,VALID,311,VALID,0.0113076,
2001-04-17, 01:36:00,VALID,917.029,VALID,0,VALID,97.4672,VALID,-0.0339617,VALID,20.4522,VALID,311,VALID,0,
2001-04-17, 01:37:00,VALID,917.017,VALID,0,VALID,97.4774,VALID,0,VALID,20.4455,VALID,311,VALID,0.0308594,
2001-04-17, 01:38:00,VALID,917.019,VALID,0,VALID,97.4876,VALID,-0.0169808,VALID,20.4463,VALID,311,VALID,0,
2001-04-17, 01:39:00,VALID,917.02,VALID,0,VALID,97.4901,VALID,-0.0339617,VALID,20.4326,VALID,311,VALID,0,
2001-04-17, 01:40:00,VALID,917.041,VALID,0,VALID,97.5486,VALID,0,VALID,20.4525,VALID,311,VALID,0.00117188,
2001-04-17, 01:41:00,VALID,917.031,VALID,0,VALID,97.5969,VALID,-0.0169808,VALID,20.4554,VALID,311,VALID,0,
2001-04-17, 01:42:00,VALID,917.028,VALID,0,VALID,97.6211,VALID,-0.0509425,VALID,20.4554,VALID,311,VALID,0,
2001-04-17, 01:43:00,VALID,917.03,VALID,0,VALID,97.6363,VALID,-0.0169808,VALID,20.4619,VALID,311,VALID,0,
2001-04-17, 01:44:00,VALID,917.029,VALID,0,VALID,97.6541,VALID,-0.0169808,VALID,20.4751,VALID,311,VALID,0,
2001-04-17, 01:45:00,VALID,917.035,VALID,0,VALID,97.6643,VALID,-0.0169808,VALID,20.488,VALID,311,VALID,0,
2001-04-17, 01:46:00,VALID,917.046,VALID,0,VALID,97.663,VALID,-0.0849042,VALID,20.5109,VALID,311,VALID,0,
2001-04-17, 01:47:00,VALID,917.053,VALID,0,VALID,97.6122,VALID,-0.0679233,VALID,20.494,VALID,339,VALID,0.0707237,
2001-04-17, 01:48:00,VALID,917.073,VALID,0,VALID,97.5855,VALID,-0.0679233,VALID,20.5141,VALID,106,VALID,0.358008,
2001-04-17, 01:49:00,VALID,917.076,VALID,0,VALID,97.5321,VALID,-0.0679233,VALID,20.5141,VALID,107,VALID,0.46543,
2001-04-17, 01:50:00,VALID,917.064,VALID,0,VALID,97.4736,VALID,-0.101885,VALID,20.5206,VALID,98,VALID,0.488582,
2001-04-17, 01:51:00,VALID,917.063,VALID,0,VALID,97.3617,VALID,-0.0679233,VALID,20.4912,VALID,98,VALID,0.379729,
2001-04-17, 01:52:00,VALID,917.049,VALID,0,VALID,97.3998,VALID,-0.0679233,VALID,20.4974,VALID,98,VALID,0.116406,
2001-04-17, 01:53:00,VALID,917.039,VALID,0,VALID,97.3731,VALID,-0.0849042,VALID,20.4977,VALID,98,VALID,0.0375,
2001-04-17, 01:54:00,VALID,917.027,VALID,0,VALID,97.293,VALID,-0.0679233,VALID,20.485,VALID,98,VALID,0.00200321,
2001-04-17, 01:55:00,VALID,917.02,VALID,0,VALID,97.2472,VALID,-0.0679233,VALID,20.4753,VALID,98,VALID,0,
2001-04-17, 01:56:00,VALID,917.017,VALID,0,VALID,97.2816,VALID,-0.0169808,VALID,20.449,VALID,98,VALID,0,
2001-04-17, 01:57:00,VALID,917.002,VALID,0,VALID,97.279,VALID,-0.0509425,VALID,20.4463,VALID,98,VALID,0,
2001-04-17, 01:58:00,VALID,916.982,VALID,0,VALID,97.3718,VALID,-0.0849042,VALID,20.4398,VALID,98,VALID,0,
2001-04-17, 01:59:00,VALID,916.967,VALID,0,VALID,97.4507,VALID,-0.0169808,VALID,20.4627,VALID,98,VALID,0,
2001-04-17, 02:00:00,VALID,916.947,VALID,0,VALID,97.4939,VALID,-0.0849042,VALID,20.4716,VALID,98,VALID,0,
2001-04-17, 02:01:00,VALID,916.943,VALID,0,VALID,97.5079,VALID,0,VALID,20.4883,VALID,98,VALID,0.209375,
2001-04-17, 02:02:00,VALID,916.928,VALID,0,VALID,97.4799,VALID,-0.0169808,VALID,20.5049,VALID,98,VALID,0.0847356,
2001-04-17, 02:03:00,VALID,916.92,VALID,0,VALID,97.4392,VALID,0,VALID,20.4972,VALID,98,VALID,0,
2001-04-17, 02:04:00,VALID,916.908,VALID,0,VALID,97.4303,VALID,-0.0339617,VALID,20.5101,VALID,98,VALID,0,
2001-04-17, 02:05:00,VALID,916.91,VALID,0,VALID,97.2828,VALID,-0.0679233,VALID,20.5171,VALID,98,VALID,0,
2001-04-17, 02:06:00,VALID,916.915,VALID,0,VALID,97.1646,VALID,-0.0339617,VALID,20.494,VALID,99,VALID,0,
2001-04-17, 02:07:00,VALID,916.917,VALID,0,VALID,97.1697,VALID,-0.0339617,VALID,20.4748,VALID,118,VALID,0,
2001-04-17, 02:08:00,VALID,916.917,VALID,0,VALID,97.2282,VALID,-0.0169808,VALID,20.4786,VALID,129,VALID,0,
2001-04-17, 02:09:00,VALID,916.907,VALID,0,VALID,97.2536,VALID,-0.0339617,VALID,20.4681,VALID,129,VALID,0,
2001-04-17, 02:10:00,VALID,916.898,VALID,0,VALID,97.2752,VALID,-0.0509425,VALID,20.4756,VALID,129,VALID,0,
2001-04-17, 02:11:00,VALID,916.884,VALID,0,VALID,97.279,VALID,-0.0339617,VALID,20.4654,VALID,129,VALID,0,
2001-04-17, 02:12:00,VALID,916.881,VALID,0,VALID,97.3032,VALID,-0.0509425,VALID,20.4719,VALID,129,VALID,0,
2001-04-17, 02:13:00,VALID,916.857,VALID,0,VALID,97.3223,VALID,0,VALID,20.4681,VALID,129,VALID,0,
2001-04-17, 02:14:00,VALID,916.856,VALID,0,VALID,97.3757,VALID,-0.0169808,VALID,20.4748,VALID,129,VALID,0,
2001-04-17, 02:15:00,VALID,916.854,VALID,0,VALID,97.3591,VALID,-0.0339617,VALID,20.4617,VALID,129,VALID,0,
2001-04-17, 02:16:00,VALID,916.838,VALID,0,VALID,97.3617,VALID,-0.0509425,VALID,20.4582,VALID,130,VALID,0,
2001-04-17, 02:17:00,VALID,916.854,VALID,0,VALID,97.3706,VALID,0,VALID,20.4554,VALID,175,VALID,0,
2001-04-17, 02:18:00,VALID,916.857,VALID,0,VALID,97.3413,VALID,-0.0169808,VALID,20.4395,VALID,180,VALID,0,
2001-04-17, 02:19:00,VALID,916.857,VALID,0,VALID,97.2828,VALID,-0.0169808,VALID,20.4132,VALID,157,VALID,0.0777138,
2001-04-17, 02:20:00,VALID,916.873,VALID,0,VALID,97.2994,VALID,0,VALID,20.4105,VALID,88,VALID,0.319531,
2001-04-17, 02:21:00,VALID,916.883,VALID,0,VALID,97.2905,VALID,-0.0169808,VALID,20.4038,VALID,83,VALID,0.419727,
2001-04-17, 02:22:00,VALID,916.868,VALID,0,VALID,97.2854,VALID,0,VALID,20.4005,VALID,83,VALID,0.411258,
2001-04-17, 02:23:00,VALID,916.869,VALID,0,VALID,97.3299,VALID,-0.0169808,VALID,20.368,VALID,83,VALID,0.287829,
2001-04-17, 02:24:00,VALID,916.86,VALID,0,VALID,97.3261,VALID,-0.0169808,VALID,20.3612,VALID,84,VALID,0.209766,
2001-04-17, 02:25:00,VALID,916.855,VALID,0,VALID,97.3019,VALID,0,VALID,20.3521,VALID,84,VALID,0,
2001-04-17, 02:26:00,VALID,916.867,VALID,0,VALID,97.3515,VALID,-0.0509425,VALID,20.3458,VALID,84,VALID,0,
2001-04-17, 02:27:00,VALID,916.854,VALID,0,VALID,97.4481,VALID,-0.0169808,VALID,20.3294,VALID,84,VALID,0,
2001-04-17, 02:28:00,VALID,916.868,VALID,0,VALID,97.5422,VALID,-0.0339617,VALID,20.3195,VALID,71,VALID,0.142578,
2001-04-17, 02:29:00,VALID,916.869,VALID,0,VALID,97.6033,VALID,-0.0679233,VALID,20.3071,VALID,321,VALID,0.448047,
2001-04-17, 02:30:00,VALID,916.891,VALID,0,VALID,97.6936,VALID,-0.0169808,VALID,20.3006,VALID,316,VALID,0.415465,
2001-04-17, 02:31:00,VALID,916.892,VALID,0,VALID,97.7877,VALID,-0.0169808,VALID,20.2812,VALID,312,VALID,0.313322,
2001-04-17, 02:32:00,VALID,916.89,VALID,0,VALID,97.8868,VALID,-0.0339617,VALID,20.2683,VALID,306,VALID,0.0396484,
2001-04-17, 02:33:00,VALID,916.894,VALID,0,VALID,97.9631,VALID,-0.0169808,VALID,20.2549,VALID,303,VALID,0.0273438,
2001-04-17, 02:34:00,VALID,916.883,VALID,0,VALID,98.0509,VALID,-0.0339617,VALID,20.2651,VALID,302,VALID,0.00300481,
2001-04-17, 02:35:00,VALID,916.905,VALID,0,VALID,98.1412,VALID,-0.0339617,VALID,20.2753,VALID,302,VALID,0,
2001-04-17, 02:36:00,VALID,916.896,VALID,0,VALID,98.1946,VALID,-0.0849042,VALID,20.2718,VALID,302,VALID,0,
2001-04-17, 02:37:00,VALID,916.915,VALID,0,VALID,98.2213,VALID,-0.0679233,VALID,20.2656,VALID,302,VALID,0,
2001-04-17, 02:38:00,VALID,916.916,VALID,0,VALID,98.2518,VALID,0.0509425,VALID,20.2703,VALID,60,VALID,0,
2001-04-17, 02:39:00,VALID,916.905,VALID,0,VALID,98.2709,VALID,0.0679233,VALID,20.2834,VALID,87,VALID,0,
2001-04-17, 02:40:00,VALID,916.899,VALID,0,VALID,98.295,VALID,0.0849042,VALID,20.2797,VALID,87,VALID,0,
2001-04-17, 02:41:00,VALID,916.902,VALID,0,VALID,98.2747,VALID,0.0849042,VALID,20.2738,VALID,87,VALID,0,
2001-04-17, 02:42:00,VALID,916.882,VALID,0,VALID,98.2569,VALID,0.0679233,VALID,20.27,VALID,87,VALID,0,
2001-04-17, 02:43:00,VALID,916.884,VALID,0,VALID,98.2671,VALID,0.0509425,VALID,20.2864,VALID,87,VALID,0,
2001-04-17, 02:44:00,VALID,916.894,VALID,0,VALID,98.2645,VALID,0.0509425,VALID,20.2797,VALID,86,VALID,0,
2001-04-17, 02:45:00,VALID,916.885,VALID,0,VALID,98.3014,VALID,0.0169808,VALID,20.2961,VALID,86,VALID,0,
2001-04-17, 02:46:00,VALID,916.873,VALID,0,VALID,98.3306,VALID,0.0679233,VALID,20.312,VALID,86,VALID,0,
2001-04-17, 02:47:00,VALID,916.865,VALID,0,VALID,98.3319,VALID,0.0679233,VALID,20.3217,VALID,86,VALID,0,
2001-04-17, 02:48:00,VALID,916.846,VALID,0,VALID,98.3319,VALID,0.0339617,VALID,20.3416,VALID,90,VALID,0,
2001-04-17, 02:49:00,VALID,916.812,VALID,0,VALID,98.3217,VALID,0.0509425,VALID,20.3642,VALID,92,VALID,0,
2001-04-17, 02:50:00,VALID,916.816,VALID,0,VALID,98.3014,VALID,0.0679233,VALID,20.3736,VALID,92,VALID,0,
2001-04-17, 02:51:00,VALID,916.814,VALID,0,VALID,98.2518,VALID,0.0679233,VALID,20.3672,VALID,92,VALID,0.067023,
2001-04-17, 02:52:00,VALID,916.836,VALID,0,VALID,98.2391,VALID,0.0509425,VALID,20.3702,VALID,107,VALID,0,
2001-04-17, 02:53:00,VALID,916.852,VALID,0,VALID,98.1958,VALID,-0.0339617,VALID,20.3816,VALID,102,VALID,0.0923828,
2001-04-17, 02:54:00,VALID,916.872,VALID,0,VALID,98.1374,VALID,-0.0339617,VALID,20.3819,VALID,96,VALID,0.470553,
2001-04-17, 02:55:00,VALID,916.87,VALID,0,VALID,98.0865,VALID,-0.0339617,VALID,20.3851,VALID,105,VALID,0.420436,
2001-04-17, 02:56:00,VALID,916.886,VALID,0,VALID,98.0941,VALID,-0.0509425,VALID,20.3779,VALID,104,VALID,0.398633,
2001-04-17, 02:57:00,VALID,916.887,VALID,0,VALID,98.0522,VALID,-0.0339617,VALID,20.3749,VALID,95,VALID,0.689453,
2001-04-17, 02:58:00,VALID,916.878,VALID,0,VALID,98.0763,VALID,-0.0169808,VALID,20.3776,VALID,106,VALID,0.451923,
2001-04-17, 02:59:00,VALID,916.88,VALID,0,VALID,98.0267,VALID,-0.0339617,VALID,20.3975,VALID,101,VALID,0.670436,
2001-04-17, 03:00:00,VALID,916.862,VALID,0,VALID,97.953,VALID,-0.0509425,VALID,20.3911,VALID,114,VALID,0.618164,
2001-04-17, 03:01:00,VALID,916.848,VALID,0,VALID,97.9466,VALID,-0.0339617,VALID,20.3978,VALID,110,VALID,0.60293,
2001-04-17, 03:02:00,VALID,916.841,VALID,0,VALID,97.9581,VALID,-0.0679233,VALID,20.4142,VALID,102,VALID,0.28105,
2001-04-17, 03:03:00,VALID,916.826,VALID,0,VALID,97.9352,VALID,-0.0509425,VALID,20.4177,VALID,80,VALID,0.270765,
2001-04-17, 03:04:00,VALID,916.815,VALID,0,VALID,97.9415,VALID,-0.0679233,VALID,20.4269,VALID,87,VALID,0.105664,
2001-04-17, 03:05:00,VALID,916.805,VALID,0,VALID,97.9339,VALID,-0.0509425,VALID,20.453,VALID,87,VALID,0.216016,
2001-04-17, 03:06:00,VALID,916.801,VALID,0,VALID,97.8614,VALID,-0.0679233,VALID,20.4565,VALID,92,VALID,0.124199,
2001-04-17, 03:07:00,VALID,916.802,VALID,0,VALID,97.8004,VALID,-0.0509425,VALID,20.4395,VALID,105,VALID,0.635074,
2001-04-17, 03:08:00,VALID,916.795,VALID,0,VALID,97.7215,VALID,-0.0339617,VALID,20.4264,VALID,89,VALID,0.745703,
2001-04-17, 03:09:00,VALID,916.804,VALID,0,VALID,97.6808,VALID,-0.0509425,VALID,20.4269,VALID,111,VALID,0.604102,
2001-04-17, 03:10:00,VALID,916.789,VALID,0,VALID,97.6656,VALID,-0.0679233,VALID,20.4234,VALID,91,VALID,0.450321,
2001-04-17, 03:11:00,VALID,916.811,VALID,0,VALID,97.6249,VALID,-0.0509425,VALID,20.4269,VALID,92,VALID,0.317023,
2001-04-17, 03:12:00,VALID,916.813,VALID,0,VALID,97.5842,VALID,-0.0509425,VALID,20.4301,VALID,93,VALID,0.717773,
2001-04-17, 03:13:00,VALID,916.811,VALID,0,VALID,97.5511,VALID,-0.0509425,VALID,20.4239,VALID,94,VALID,0.699609,
2001-04-17, 03:14:00,VALID,916.803,VALID,0,VALID,97.5524,VALID,-0.0509425,VALID,20.4177,VALID,96,VALID,0.752604,
2001-04-17, 03:15:00,VALID,916.799,VALID,0,VALID,97.5524,VALID,-0.0339617,VALID,20.4172,VALID,94,VALID,0.457442,
2001-04-17, 03:16:00,VALID,916.791,VALID,0,VALID,97.513,VALID,-0.0849042,VALID,20.4177,VALID,91,VALID,0.701758,
2001-04-17, 03:17:00,VALID,916.773,VALID,0,VALID,97.4024,VALID,-0.0679233,VALID,20.3946,VALID,112,VALID,0.689844,
2001-04-17, 03:18:00,VALID,916.762,VALID,0,VALID,97.4253,VALID,-0.0679233,VALID,20.3717,VALID,107,VALID,0.814103,
2001-04-17, 03:19:00,VALID,916.753,VALID,0,VALID,97.4761,VALID,-0.0679233,VALID,20.3784,VALID,103,VALID,0.655222,
2001-04-17, 03:20:00,VALID,916.755,VALID,0,VALID,97.4647,VALID,-0.0679233,VALID,20.3722,VALID,97,VALID,0.562891,
2001-04-17, 03:21:00,VALID,916.755,VALID,0,VALID,97.5066,VALID,-0.0509425,VALID,20.3657,VALID,106,VALID,0.207031,
2001-04-17, 03:22:00,VALID,916.762,VALID,0,VALID,97.588,VALID,-0.0509425,VALID,20.3588,VALID,108,VALID,0.00200321,
2001-04-17, 03:23:00,VALID,916.788,VALID,0,VALID,97.5931,VALID,0,VALID,20.3712,VALID,108,VALID,0,
2001-04-17, 03:24:00,VALID,916.802,VALID,0,VALID,97.5944,VALID,0.0169808,VALID,20.3645,VALID,108,VALID,0,
2001-04-17, 03:25:00,VALID,916.82,VALID,0,VALID,97.5969,VALID,0.0169808,VALID,20.3774,VALID,108,VALID,0,
2001-04-17, 03:26:00,VALID,916.828,VALID,0,VALID,97.5855,VALID,0,VALID,20.3806,VALID,108,VALID,0,
2001-04-17, 03:27:00,VALID,916.834,VALID,0,VALID,97.6109,VALID,0,VALID,20.3973,VALID,108,VALID,0,
2001-04-17, 03:28:00,VALID,916.831,VALID,0,VALID,97.644,VALID,0,VALID,20.4199,VALID,106,VALID,0.106055,
2001-04-17, 03:29:00,VALID,916.831,VALID,0,VALID,97.6224,VALID,0,VALID,20.403,VALID,104,VALID,0.266016,
2001-04-17, 03:30:00,VALID,916.846,VALID,0,VALID,97.6211,VALID,0,VALID,20.4261,VALID,102,VALID,0.463542,
2001-04-17, 03:31:00,VALID,916.842,VALID,0,VALID,97.5931,VALID,0.0169808,VALID,20.4256,VALID,97,VALID,0.492599,
2001-04-17, 03:32:00,VALID,916.847,VALID,0,VALID,97.6173,VALID,0,VALID,20.4517,VALID,103,VALID,0.503516,
2001-04-17, 03:33:00,VALID,916.84,VALID,0,VALID,97.6185,VALID,0,VALID,20.4614,VALID,94,VALID,0.146289,
2001-04-17, 03:34:00,VALID,916.836,VALID,0,VALID,97.5664,VALID,0.0169808,VALID,20.4716,VALID,94,VALID,0.066907,
2001-04-17, 03:35:00,VALID,916.815,VALID,0,VALID,97.5702,VALID,0.0509425,VALID,20.4582,VALID,94,VALID,0.0213816,
2001-04-17, 03:36:00,VALID,916.801,VALID,0,VALID,97.5677,VALID,0,VALID,20.4679,VALID,94,VALID,0,
2001-04-17, 03:37:00,VALID,916.78,VALID,0,VALID,97.5956,VALID,0,VALID,20.4646,VALID,98,VALID,0.185547,